Location: Belfast
(54.5830°N, 5.9330°W)
Time: 14:46:44
(UTC+00:00)

ISS - Visible Passes

Search period start: 21 February 2019 00:00
Search period end: 03 March 2019 00:00
Orbit: 403 x 411 km, 51.6° (Epoch: 22 February)

Date Brightness Start Highest point End Pass type
(mag) Time Alt. Az. Time Alt. Az. Time Alt. Az.
24 Feb -0.5 06:19:24 10° SSE 06:19:47 10° SE 06:20:11 10° SE visible
26 Feb -1.2 06:10:42 10° SSW 06:12:58 17° SSE 06:15:14 10° ESE visible
27 Feb -1.0 05:20:18 10° SSE 05:21:43 12° SE 05:23:07 10° ESE visible
28 Feb -2.1 06:03:22 10° SW 06:06:12 27° SSE 06:09:02 10° E visible
01 Mar -1.8 05:13:43 17° S 05:14:51 20° SSE 05:17:21 10° E visible
02 Mar -1.1 04:24:17 14° SE 04:24:17 14° SE 04:25:25 10° ESE visible
02 Mar -2.7 05:56:59 14° SW 05:59:28 38° SSE 06:02:33 10° E visible
